[[{"header":{"parameterUnit":"m.s-1","parameterCategory":1,"la1":30.2991,"la2":30.254,"lo1":-89.0895,"lo2":-89.0444,"dy":0.0017,"dx":0.0017,"nx":28,"ny":28,"refTime":"2024-09-27T03:00:00:Z","depth":0,"parameterNumber":2,"parameterNumberName":"U-component_of_WINDS"},"data":[0,0,0,0,0,0,0,0,0,0,0,0,0,0,0,0,0,0,0,0,0,0,0,0,0,0,0,0,0,0,0,0,0,0,0,0,0,0,0,0,0,0,0,0,0,0,0,0,0,0,0,0,0,0,0,0,0,0,6.7941,6.7943,0,6.8083,6.8084,6.8086,6.8064,6.8061,6.8059,6.8057,6.8203,6.8209,6.8215,0,0,0,0,0,0,0,0,0,0,0,0,0,6.7654,6.766,6.7941,6.7943,6.7945,6.8082,6.8084,6.8086,6.8064,6.8061,6.8058,6.8056,6.8201,6.8208,6.8215,0,0,0,0,0,0,0,0,0,0,0,0,0,6.7786,6.7661,6.7941,6.795,6.7953,6.8082,6.8084,6.8087,6.8065,6.8061,6.8058,6.8054,6.8198,6.8207,6.8216,6.8345,0,0,6.8244,6.8248,0,0,0,0,0,0,0,0,6.7778,6.7796,6.7947,6.795,6.7953,6.8052,6.8037,6.8174,6.8066,6.8022,6.8057,6.8052,6.8155,6.8168,6.8202,6.8352,6.8359,6.8245,6.8251,6.8255,6.8257,0,0,0,0,0,0,0,6.7769,6.779,6.7997,6.7949,6.7953,6.7948,6.7963,6.8062,6.8107,6.8026,6.8024,6.8041,6.8156,6.8194,6.8206,6.8361,6.8245,6.8253,6.8259,6.8262,6.8626,6.863,0,0,0,0,0,0,6.7757,6.7783,6.7993,6.8001,6.7855,6.7956,6.7973,6.8024,6.8106,6.8115,6.8044,6.804,6.818,6.8195,6.8211,6.8369,6.8255,6.8263,6.8268,6.8622,6.8627,6.8631,0,0,0,0,0,0,6.7751,6.7776,6.7987,6.7892,6.7918,6.7965,6.8023,6.8028,6.8066,6.812,6.8128,6.8074,6.8177,6.8198,6.8313,6.8373,6.8267,6.8276,6.8617,6.8623,6.8629,6.8685,0,0,0,0,0,0,6.7743,6.7774,6.7823,6.7893,6.7923,6.8086,6.8026,6.8034,6.8081,6.8077,6.815,6.8159,6.8176,6.8299,6.8322,6.8384,6.8283,6.8612,6.862,6.8627,6.8678,6.8693,6.8705,0,0,0,0,0,6.7733,6.7833,6.7826,6.7851,6.7985,6.8089,6.8107,6.8124,6.8086,6.8137,6.8172,6.8157,6.8363,6.8311,6.8336,6.8403,6.8608,6.8618,6.8627,6.8672,6.869,6.8705,0,0,0,0,0,0,6.7769,6.7842,6.7835,6.796,6.8019,6.8085,6.8149,6.8142,6.8212,6.8205,6.8224,6.824,6.8357,6.8391,6.8332,6.8533,6.8481,6.8495,6.8506,6.8524,6.8537,6.8526,6.8291,0,0,0,0,0,6.7791,6.7869,6.7929,6.8034,6.8064,6.8102,6.8147,6.8156,6.8217,6.8242,6.8285,6.8346,6.8425,6.8476,6.8551,6.8683,6.87,6.8741,6.8755,6.8765,6.8778,6.8852,6.8872,6.8662,6.8662,6.8662,0,0,6.7838,6.7888,6.7936,6.8043,6.8089,6.817,6.8122,6.8209,6.827,6.8255,6.8366,6.8401,6.847,6.8594,6.8651,6.8626,6.884,6.8777,6.8786,6.8793,6.8864,6.8884,6.8901,6.8668,6.8667,6.8666,0,0,6.7966,6.8011,6.8104,6.8152,6.8223,6.8248,6.827,6.8338,6.8361,6.8473,6.8464,6.8536,6.8671,6.8721,6.8764,6.8913,6.8902,6.8937,6.9007,6.9079,6.9095,6.911,6.9164,6.9184,6.8949,6.895,6.895,0,6.8016,6.8137,6.8153,6.8242,6.829,6.8281,6.8376,6.8421,6.8513,6.8547,6.8518,6.8688,6.8733,6.887,6.8907,6.8941,6.8969,6.8929,6.9092,6.9107,6.9121,6.9173,6.9193,6.8953,6.8953,6.8953,6.8952,0,6.8196,6.828,6.8347,6.8436,6.8492,6.8583,6.8614,6.8669,6.8673,6.8701,6.8816,6.8871,6.8958,6.8991,6.8995,6.9129,6.9112,6.9087,6.9035,6.9144,6.9193,6.9213,6.8959,6.8958,6.8956,6.8955,0,0,6.8349,6.8447,6.8472,6.8513,6.8591,6.8657,6.8749,6.8834,6.8881,6.8945,6.9023,6.9138,6.9117,6.9166,6.9176,6.9239,6.9355,6.9207,6.9209,6.9233,6.9508,6.9526,6.9548,6.9349,6.9353,6.9356,6.9502,0,6.8485,6.8647,6.8665,6.881,6.8889,6.8882,6.8962,6.902,6.9049,6.9121,6.9153,6.9235,6.9199,6.9229,6.9291,6.9328,6.9411,6.9318,6.9423,6.9426,6.9406,6.9574,6.9593,6.9728,6.9521,6.9524,6.9527,0,6.8665,6.8734,6.8887,6.8956,6.899,6.9062,6.9142,6.9211,6.9276,6.9293,6.9349,6.9351,6.9448,6.9392,6.9525,6.9461,6.9506,6.9531,6.9536,6.9547,6.9483,6.959,6.9772,6.9792,6.9557,6.9555,6.9552,0,6.8762,6.8895,6.9004,6.9039,6.9122,6.9173,6.921,6.9271,6.9322,6.9393,6.9426,6.9507,6.9551,6.9614,6.9639,6.9596,6.9772,6.9717,6.979,6.9789,6.9827,6.9824,7.0019,6.9855,6.9855,6.9854,6.9854,0,6.8913,6.9007,6.9049,6.9116,6.9222,6.9242,6.9347,6.9381,6.9437,6.9511,6.951,6.958,6.9609,6.9684,6.9704,6.9812,6.9832,6.9849,6.9854,6.985,6.9848,6.9879,6.987,6.986,6.9858,6.9857,6.9856,0,6.9039,6.9071,6.919,6.9259,6.9279,6.9354,6.9413,6.9479,6.9507,6.9602,6.9625,6.9671,6.9759,6.979,6.9898,6.9911,7.0037,7.0033,7.0015,7.0016,7.0087,7.008,7.0309,7.0341,7.0155,7.0157,7.0158,0,6.9133,6.9206,6.9283,6.9333,6.9372,6.9452,6.9503,6.9527,6.9581,6.9662,6.9718,6.9806,6.9878,7.002,7.0063,7.0145,7.0144,7.0218,7.0156,7.015,7.0146,7.0141,7.0149,7.023,7.0232,7.0233,7.0235,0,6.9297,6.9309,6.9384,6.9465,6.9527,6.9592,6.9654,6.9695,6.9729,6.979,6.988,6.9936,7.0046,7.0134,7.0218,7.0257,7.0252,7.0254,7.0275,7.0272,7.0259,7.0268,7.0047,7.0249,7.0247,7.0246,7.0245,7.0245,6.9411,6.9475,6.954,6.9624,6.9674,6.9733,6.9798,6.9835,6.9911,7.0002,7.0012,7.011,7.0175,7.0288,7.0331,7.0409,7.0388,7.0418,7.0426,7.0434,7.0439,7.0246,7.0424,7.0424,7.0423,7.0423,7.0423,0,6.9575,6.9617,6.9693,6.9782,6.9848,6.9837,6.9907,6.9963,7.0049,7.011,7.018,7.0285,7.0371,7.0421,7.0507,7.0559,7.0559,7.0581,7.0578,7.0587,7.0452,7.0426,7.058,7.058,7.058,7.058,7.058,7.058,6.9668,6.9777,6.9798,6.9932,6.9973,7.0069,7.0109,7.0164,7.0213,7.033,7.0401,7.0433,7.0491,7.0581,7.066,7.0672,7.0704,7.0728,7.0739,7.0612,7.0596,7.0581,7.0556,7.0735,7.0735,7.0867,7.0869,7.087]},{"header":{"parameterUnit":"m.s-1","parameterCategory":1,"la1":30.2991,"la2":30.254,"lo1":-89.0895,"lo2":-89.0444,"dy":0.0017,"dx":0.0017,"nx":28,"ny":28,"refTime":"2024-09-27T03:00:00:Z","depth":0,"parameterNumber":3,"parameterNumberName":"V-component_of_WINDS"},"data":[0,0,0,0,0,0,0,0,0,0,0,0,0,0,0,0,0,0,0,0,0,0,0,0,0,0,0,0,0,0,0,0,0,0,0,0,0,0,0,0,0,0,0,0,0,0,0,0,0,0,0,0,0,0,0,0,0,0,0.6688,0.6689,0,0.6714,0.6714,0.6715,0.6699,0.6698,0.6697,0.6697,0.6724,0.6725,0.6727,0,0,0,0,0,0,0,0,0,0,0,0,0,0.6625,0.6627,0.6688,0.6689,0.6689,0.6714,0.6714,0.6715,0.6699,0.6698,0.6697,0.6696,0.6724,0.6725,0.6727,0,0,0,0,0,0,0,0,0,0,0,0,0,0.6652,0.6627,0.6688,0.6684,0.6684,0.6714,0.6714,0.6715,0.6699,0.6698,0.6697,0.6696,0.6723,0.6725,0.6727,0.6763,0,0,0.6734,0.6735,0,0,0,0,0,0,0,0,0.6651,0.6654,0.6684,0.6684,0.6684,0.6702,0.6702,0.6731,0.6699,0.6693,0.6697,0.6695,0.6718,0.672,0.6728,0.6764,0.6766,0.6734,0.6735,0.6736,0.6737,0,0,0,0,0,0,0,0.6649,0.6653,0.6699,0.6685,0.6685,0.6681,0.6683,0.6708,0.6712,0.6694,0.6693,0.6696,0.6717,0.6726,0.6728,0.6766,0.6734,0.6736,0.6737,0.6738,0.6832,0.6833,0,0,0,0,0,0,0.6647,0.6652,0.6698,0.6699,0.6664,0.6683,0.6686,0.6698,0.6711,0.6712,0.6697,0.6695,0.6722,0.6726,0.6729,0.6771,0.6736,0.6738,0.6739,0.6831,0.6832,0.6833,0,0,0,0,0,0,0.6646,0.6652,0.6697,0.6675,0.6681,0.6685,0.6699,0.6699,0.6707,0.6714,0.6714,0.6704,0.6722,0.6726,0.6754,0.6771,0.6739,0.6741,0.6829,0.6831,0.6833,0.6855,0,0,0,0,0,0,0.6644,0.6651,0.6665,0.6676,0.6682,0.6722,0.67,0.67,0.671,0.6708,0.6721,0.6722,0.6721,0.6751,0.6756,0.6774,0.6743,0.6828,0.683,0.6832,0.6853,0.6857,0.6861,0,0,0,0,0,0.6642,0.6671,0.6666,0.6671,0.6699,0.6723,0.6726,0.6725,0.6712,0.6726,0.673,0.6721,0.6769,0.6754,0.676,0.6778,0.6826,0.6829,0.6832,0.6851,0.6857,0.6861,0,0,0,0,0,0,0.6663,0.6672,0.6667,0.67,0.6711,0.672,0.6738,0.6731,0.6746,0.6743,0.6741,0.6744,0.6773,0.6779,0.6762,0.6813,0.6796,0.68,0.6808,0.6814,0.6818,0.6815,0.6745,0,0,0,0,0,0.6671,0.6689,0.6697,0.6725,0.6731,0.6733,0.6744,0.6741,0.6752,0.6757,0.6763,0.6774,0.6791,0.6803,0.6819,0.6854,0.6855,0.6869,0.6873,0.6877,0.688,0.6897,0.6903,0.6842,0.6842,0.6842,0,0,0.6689,0.6696,0.6708,0.673,0.6738,0.6756,0.6737,0.6758,0.6772,0.676,0.6787,0.6792,0.6804,0.6835,0.6849,0.684,0.6897,0.688,0.6883,0.6884,0.69,0.6906,0.6911,0.6844,0.6844,0.6843,0,0,0.6731,0.6738,0.6762,0.677,0.6782,0.6783,0.6789,0.6799,0.6802,0.6828,0.6819,0.6835,0.6866,0.6874,0.6882,0.6925,0.6918,0.6931,0.6953,0.697,0.6974,0.6978,0.6993,0.6998,0.6934,0.6934,0.6934,0,0.6751,0.6779,0.6776,0.6796,0.6806,0.6795,0.6819,0.6827,0.6844,0.685,0.684,0.6877,0.6884,0.6916,0.6927,0.6934,0.694,0.6929,0.6974,0.6978,0.6982,0.6995,0.7001,0.6936,0.6935,0.6935,0.6935,0,0.6803,0.6822,0.684,0.6855,0.6866,0.6889,0.6889,0.69,0.6897,0.6899,0.6925,0.6934,0.6951,0.6958,0.6955,0.699,0.6984,0.6974,0.6956,0.6989,0.7002,0.7007,0.6938,0.6937,0.6937,0.6936,0,0,0.6859,0.6871,0.6877,0.6883,0.6895,0.691,0.6931,0.6947,0.6957,0.6969,0.6986,0.7011,0.7001,0.7011,0.7008,0.7023,0.7055,0.7011,0.7012,0.7018,0.7091,0.7098,0.7104,0.705,0.7051,0.7052,0.709,0,0.69,0.6937,0.6934,0.6968,0.6985,0.6975,0.6993,0.7002,0.7004,0.7019,0.7021,0.7038,0.7025,0.7031,0.7045,0.7048,0.7069,0.7045,0.7065,0.7066,0.7062,0.7111,0.7118,0.7154,0.7095,0.7096,0.7096,0,0.6953,0.6965,0.7001,0.7009,0.7016,0.7032,0.7046,0.706,0.707,0.707,0.708,0.7075,0.7096,0.7078,0.7106,0.709,0.7098,0.71,0.7102,0.7103,0.7083,0.7113,0.7166,0.7171,0.7104,0.7104,0.7103,0,0.6988,0.7014,0.7039,0.7045,0.7054,0.7066,0.7071,0.7079,0.7088,0.71,0.7106,0.7121,0.7128,0.714,0.7138,0.7126,0.7167,0.7149,0.7167,0.7167,0.7176,0.7175,0.723,0.7182,0.7182,0.7182,0.7182,0,0.7034,0.7056,0.7055,0.707,0.7094,0.709,0.7114,0.7118,0.7125,0.714,0.7132,0.7146,0.7144,0.7158,0.7158,0.718,0.7184,0.7185,0.7184,0.7185,0.7185,0.719,0.7187,0.7184,0.7183,0.7183,0.7183,0,0.7078,0.7078,0.7103,0.711,0.7112,0.713,0.7135,0.7149,0.715,0.7169,0.7174,0.7175,0.7192,0.7191,0.721,0.7209,0.7237,0.7234,0.7233,0.7232,0.725,0.7248,0.7309,0.7317,0.7265,0.7266,0.7266,0,0.7107,0.7123,0.7131,0.7141,0.7146,0.7161,0.717,0.7167,0.7177,0.7188,0.72,0.7215,0.7227,0.7254,0.7256,0.727,0.7267,0.7287,0.7269,0.7269,0.7266,0.7265,0.7266,0.7291,0.7292,0.7292,0.7292,0,0.7157,0.7156,0.7169,0.7182,0.7193,0.7203,0.7212,0.722,0.7218,0.7229,0.7245,0.7254,0.7273,0.7288,0.7301,0.7305,0.7298,0.7298,0.7303,0.7303,0.7302,0.7302,0.7242,0.7297,0.7296,0.7296,0.7296,0.7296,0.7194,0.7207,0.7215,0.7229,0.7236,0.7244,0.7257,0.7259,0.7272,0.7287,0.7284,0.7302,0.7309,0.7326,0.7332,0.7345,0.7338,0.7345,0.7347,0.7348,0.7349,0.73,0.7348,0.7348,0.7347,0.7347,0.7347,0,0.7243,0.7247,0.726,0.7273,0.7284,0.7276,0.7285,0.7295,0.7311,0.7318,0.733,0.7348,0.7362,0.7365,0.7379,0.7389,0.7385,0.7392,0.7391,0.7392,0.7356,0.735,0.7394,0.7394,0.7394,0.7394,0.7394,0.7394,0.727,0.7292,0.7291,0.7316,0.732,0.7337,0.7342,0.735,0.7356,0.7376,0.7387,0.7389,0.7395,0.7408,0.7421,0.7421,0.7426,0.7434,0.7433,0.7399,0.7394,0.739,0.7384,0.7435,0.7435,0.7467,0.7468,0.7468]}]]